{"data":{"norad_id":67752,"intl_designator":"2026-027G","name":"2026-027G","alt_names":[],"object_type":"PAYLOAD","status":"ACTIVE","operator":null,"country":"PRC","launch_date":"2026-02-12","launch_site_code":"SCSLA","launch_vehicle":null,"mission":null,"orbit_class":"UNKNOWN","rcs_meters":null,"size_class":null,"mass_kg":null,"dimensions":null,"purposes":[],"wikipedia_slug":null,"has_3d_model":false,"image_url":null,"decayed_at":null,"tle_current":{"epoch":"2026-09-20T05:50:26.519136Z","epoch_age_seconds":111316,"freshness":"FRESH","line1":"1 67752U 26027G   26263.24336249  .00003967  00000+0  22025-3 0  9994","line2":"2 67752  97.5172  29.2417 0010708 282.4820  77.5214 15.14266961 33280","mean_motion":15.14266961,"eccentricity":0.0010708,"inclination_deg":97.5172,"raan_deg":29.2417,"arg_perigee_deg":282.482,"mean_anomaly_deg":77.5214,"bstar":0.00022025,"rev_number":3328,"period_min":95.095517308853,"perigee_km":515.8149445234,"apogee_km":530.59485833951,"semimajor_km":6901.3419014315,"source":"CELESTRAK","updated_at":"2026-09-21T09:00:16.825780Z"}}}